Flag for Philippines Weather past 2 weeks in Olongapo, Philippines

Now
91 °F

Scattered clouds.


Feels Like: 100 °F
Forecast: 82 / 93 °F
Wind: 6 mph from Northeast

Location: Subic Bay Weather Station


UV Index: 7 (High)

Visibility: N/A


Pressure: 29.83 "Hg

Humidity: 56%

Dew point: 73 °F

Location of OlongapoLocation

Historic Weather in Olongapo

°F

Olongapo temperature yesterday

Maximum temperature yesterday: 93 °F (at 11:00 AM)
Minimum temperature yesterday: 81 °F (at 3:00 AM)
Average temperature yesterday: 86 °F

Past Weeks' High & Low Weather Summary

 TemperatureHumidityPressure
High97 °F (Apr 18, 1:00 PM)94% (Apr 14, 11:00 PM)29.89 "Hg (Apr 14, 11:00 PM)
Low77 °F (Apr 12, 5:00 AM)39% (Apr 21, 12:00 PM)29.74 "Hg (Apr 10, 3:00 PM)
Average85 °F69%29.81 "Hg
* Reported Apr 9 9:00 AM — Apr 24 9:00 AM, Olongapo, Weather by CustomWeather, © 2014

Note: Actual official high and low records may vary slightly from our data, if they occured in-between our weather recording intervals... More about our weather records

Advertising

Historic Weather Conditions — Data for Previous 24 hours

 ConditionsComfort  
Time TempWeatherWind HumidityBarometerVisibility
9:00 AM
Apr 24
88 °FWarm.6 mph66%29.83 "HgN/A
8:00 AM86 °FScattered clouds.6 mph66%29.83 "HgN/A
7:00 AM82 °FScattered clouds.3 mph79%29.80 "HgN/A
6:00 AM81 °FPartly sunny.5 mph84%29.77 "HgN/A
5:00 AM81 °FPassing clouds.5 mph84%29.77 "HgN/A
2:00 AM82 °FPassing clouds.5 mph79%29.77 "HgN/A
1:00 AM82 °FPassing clouds.2 mph84%29.77 "HgN/A
11:00 PM
Apr 23
82 °FPassing clouds.2 mph84%29.80 "HgN/A
10:00 PM84 °FPassing clouds.5 mph79%29.80 "HgN/A
9:00 PM84 °FPassing clouds.8 mph79%29.80 "HgN/A
8:00 PM86 °FPassing clouds.7 mph75%29.77 "HgN/A
7:00 PM86 °FPassing clouds.7 mph75%29.77 "HgN/A
6:00 PM88 °FScattered clouds.7 mph70%29.74 "HgN/A
5:00 PM90 °FScattered clouds.7 mph67%29.74 "HgN/A
4:00 PM90 °FScattered clouds.5 mph67%29.74 "HgN/A
3:00 PM90 °FScattered clouds.13 mph67%29.74 "HgN/A
2:00 PM91 °FScattered clouds.12 mph63%29.77 "HgN/A
1:00 PM90 °FScattered clouds.13 mph63%29.80 "HgN/A
12:00 PM90 °FScattered clouds.13 mph63%29.83 "HgN/A
11:00 AM93 °FScattered clouds.3 mph59%29.83 "HgN/A
10:00 AM90 °FScattered clouds.3 mph63%29.86 "Hg6 mi
Weather by CustomWeather, © 2014

See weather overview